This is the latest recevied weather packets stored in our database for station/object G4KVI. If no packets are shown the sender has not sent any weather packets the latest 10 day(s).
| Time | Temp. | Humidity | Pressure | Rain* | Wind** | Luminosity | Snow |
|---|---|---|---|---|---|---|---|
| 1777913103 | 15° C | 74% | 1016.2 hPa | 0 mm | - | 192 W/m² | - |
| 1777912803 | 14.44° C | 76% | 1016.1 hPa | 0 mm | - | 202 W/m² | - |
| 1777912503 | 14.44° C | 76% | 1016 hPa | 0 mm | - | 150 W/m² | - |
| 1777912203 | 14.44° C | 76% | 1016.1 hPa | 0 mm | - | 154 W/m² | - |
| 1777911903 | 14.44° C | 75% | 1015.9 hPa | 0 mm | - | 171 W/m² | - |
| 1777911603 | 15° C | 74% | 1016.1 hPa | 0 mm | - | 179 W/m² | - |
| 1777911303 | 15° C | 76% | 1016.1 hPa | 0 mm | - | 159 W/m² | - |
| 1777911003 | 15° C | 75% | 1016.2 hPa | 0 mm | - | 138 W/m² | - |
| 1777910703 | 15° C | 75% | 1016.2 hPa | 0 mm | - | 140 W/m² | - |
| 1777910403 | 15° C | 76% | 1016 hPa | 0 mm | - | 141 W/m² | - |
| 1777910103 | 14.44° C | 76% | 1016 hPa | 0 mm | - | 117 W/m² | - |
| 1777909803 | 14.44° C | 76% | 1016.2 hPa | 0 mm | - | 125 W/m² | - |
| 1777909503 | 14.44° C | 77% | 1016.2 hPa | 0 mm | - | 183 W/m² | - |
| 1777909203 | 14.44° C | 77% | 1016.5 hPa | 0 mm | - | 178 W/m² | - |
| 1777908903 | 14.44° C | 79% | 1016.3 hPa | 0 mm | - | 157 W/m² | - |
| 1777908603 | 13.89° C | 80% | 1016.2 hPa | 0 mm | - | 88 W/m² | - |
| 1777908303 | 13.89° C | 80% | 1016.4 hPa | 0 mm | - | 124 W/m² | - |
| 1777908003 | 13.89° C | 81% | 1016.2 hPa | 0 mm | - | 102 W/m² | - |
| 1777907703 | 13.89° C | 80% | 1016.2 hPa | 0 mm | - | 77 W/m² | - |
| 1777907403 | 13.89° C | 80% | 1016.2 hPa | 0 mm | - | 54 W/m² | - |
| 1777907103 | 13.89° C | 80% | 1016.2 hPa | 0 mm | - | 41 W/m² | - |
| 1777906803 | 13.89° C | 80% | 1016.2 hPa | 0 mm | - | 38 W/m² | - |
| 1777906503 | 13.89° C | 79% | 1016 hPa | 0 mm | - | 43 W/m² | - |
| 1777906203 | 13.89° C | 78% | 1016.2 hPa | 0 mm | - | 39 W/m² | - |
| 1777905903 | 14.44° C | 78% | 1016.1 hPa | 0 mm | - | 30 W/m² | - |
* Rain latest hour (hover to see other rain measurements)
** Current wind speed in m/s (hover to see current wind gust speed)